Weather History for Sparta, TN

Change the Weather History Date:

Monday, October 7, 2013

  Actual Average (KCSV) Record (KCSV)
Temperature  
Mean Temperature 53 °F 60 °F  
Max Temperature 64 °F 70 °F 86 °F (2007)
Min Temperature 41 °F 49 °F 27 °F (1964)
Degree Days  
Heating Degree Days 12    
Month to date heating degree days  
Since 1 July heating degree days  
Cooling Degree Days 0    
Month to date cooling degree days  
Year to date cooling degree days  
Growing Degree Days 3 (Base 50)    
Moisture  
Dew Point 47 °F    
Average Humidity 80    
Maximum Humidity 100    
Minimum Humidity 52    
Precipitation  
Precipitation 0.00 in 0.09 in 2.22 in (1998)
Month to date precipitation 0.73  
Year to date precipitation 42.73  
Sea Level Pressure  
Sea Level Pressure 30.02 in    
Wind  
Wind Speed 2 mph (North)    
Max Wind Speed 12 mph    
Max Gust Speed -    
Visibility 8 miles    
Events      
T = Trace of Precipitation, MM = Missing Value Source: NWS Daily Summary

Daily Weather History Graph

Daily Weather History Graph

Search for Another Location

Airport:

Trip Planner

Search our weather history database for the weather conditions in past years. The results will help you decide how hot, cold, wet, or windy it might be!

Date:

Astronomy

Oct. 07, 2013 Rise Set
Actual Time 6:42 AM CDT 6:16 PM CDT
Civil Twilight 6:16 AM CDT 6:42 PM CDT
Nautical Twilight 5:46 AM CDT 7:12 PM CDT
Astronomical Twilight 5:17 AM CDT 7:41 PM CDT
Moon 9:25 AM CDT (10/7) 8:07 PM CDT (10/7)
Length of Visible Light 12h 25m
Length of Day
11h 34m
Waxing Crescent, 9% of the Moon is Illuminated
Oct 7
Waxing Crescent
Oct 11
First Quarter
Oct 18
Full
Oct 26
Last Quarter
Nov 3
New

Hourly Weather History & Observations

Time (CDT) Temp. Dew Point Humidity Pressure Visibility Wind Dir Wind Speed Gust Speed Precip Events Conditions
12:35 AM 55.4 °F 53.6 °F 94% 29.95 in 10.0 mi Calm Calm - N/A   Overcast
12:55 AM 55.4 °F 53.6 °F 94% 29.94 in 6.0 mi Calm Calm - N/A   Overcast
1:15 AM 55.4 °F 53.6 °F 94% 29.94 in 9.0 mi Calm Calm - N/A   Overcast
1:35 AM 55.4 °F 53.6 °F 94% 29.94 in 10.0 mi Calm Calm - N/A   Overcast
1:55 AM 55.4 °F 53.6 °F 94% 29.93 in 10.0 mi Calm Calm - N/A   Overcast
2:15 AM 55.4 °F 53.6 °F 94% 29.94 in 10.0 mi Calm Calm - N/A   Overcast
2:35 AM 55.4 °F 53.6 °F 94% 29.93 in 10.0 mi NW 3.5 mph - N/A   Overcast
2:55 AM 53.6 °F 53.6 °F 100% 29.93 in 10.0 mi Calm Calm - N/A   Mostly Cloudy
3:15 AM 53.6 °F 51.8 °F 94% 29.94 in 10.0 mi NNW 3.5 mph - N/A   Overcast
3:35 AM 53.6 °F 51.8 °F 94% 29.94 in 10.0 mi NNW 4.6 mph - N/A   Mostly Cloudy
3:55 AM 51.8 °F 51.8 °F 100% 29.94 in 10.0 mi NNW 3.5 mph - N/A   Partly Cloudy
4:15 AM 51.8 °F 50.0 °F 94% 29.95 in 10.0 mi Variable 3.5 mph - N/A   Mostly Cloudy
4:35 AM 51.8 °F 50.0 °F 94% 29.95 in 10.0 mi Calm Calm - N/A   Scattered Clouds
4:55 AM 51.8 °F 48.2 °F 88% 29.95 in 10.0 mi Calm Calm - N/A   Clear
5:15 AM 48.2 °F 48.2 °F 100% 29.95 in 9.0 mi Calm Calm - N/A   Clear
5:35 AM 46.4 °F 46.4 °F 100% 29.96 in 0.5 mi Calm Calm - N/A   Unknown
5:55 AM 46.4 °F 44.6 °F 93% 29.97 in 0.2 mi Calm Calm - N/A   Unknown
6:15 AM 46.4 °F 44.6 °F 93% 29.97 in 0.2 mi Calm Calm - N/A   Mostly Cloudy
6:35 AM 44.6 °F 44.6 °F 100% 29.98 in 0.2 mi Calm Calm - N/A   Overcast
6:55 AM 46.4 °F 44.6 °F 93% 29.98 in 0.2 mi Calm Calm - N/A   Overcast
7:15 AM 46.4 °F 46.4 °F 100% 29.99 in 0.2 mi Calm Calm - N/A   Overcast
7:35 AM 48.2 °F 48.2 °F 100% 30.00 in 0.2 mi Calm Calm - N/A   Overcast
7:55 AM 48.2 °F 48.2 °F 100% 30.01 in 0.2 mi Calm Calm - N/A   Overcast
8:15 AM 48.2 °F 48.2 °F 100% 30.02 in 0.2 mi Calm Calm - N/A   Overcast
8:35 AM 50.0 °F 50.0 °F 100% 30.03 in 0.2 mi Calm Calm - N/A   Overcast
8:55 AM 53.6 °F 50.0 °F 88% 30.03 in 10.0 mi ENE 4.6 mph - N/A   Scattered Clouds
9:15 AM 55.4 °F 48.2 °F 77% 30.02 in 10.0 mi Calm Calm - N/A   Clear
9:35 AM 55.4 °F 46.4 °F 72% 30.03 in 10.0 mi ENE 5.8 mph - N/A   Clear
9:55 AM 57.2 °F 44.6 °F 63% 30.03 in 10.0 mi NNE 4.6 mph - N/A   Clear
10:15 AM 57.2 °F 44.6 °F 63% 30.03 in 10.0 mi NE 5.8 mph - N/A   Clear
10:35 AM 57.2 °F 44.6 °F 63% 30.04 in 10.0 mi Variable 3.5 mph - N/A   Clear
10:55 AM 59.0 °F 42.8 °F 55% 30.04 in 10.0 mi Variable 4.6 mph - N/A   Clear
11:15 AM 59.0 °F 42.8 °F 55% 30.04 in 10.0 mi Variable 6.9 mph - N/A   Clear
11:35 AM 60.8 °F 44.6 °F 55% 30.05 in 10.0 mi Variable 6.9 mph - N/A   Clear
11:55 AM 60.8 °F 44.6 °F 55% 30.04 in 10.0 mi Variable 6.9 mph - N/A   Clear
12:15 PM 60.8 °F 44.6 °F 55% 30.04 in 10.0 mi NE 6.9 mph - N/A   Partly Cloudy
12:35 PM 62.6 °F 44.6 °F 52% 30.03 in 10.0 mi NW 11.5 mph - N/A   Partly Cloudy
12:55 PM 62.6 °F 44.6 °F 52% 30.03 in 10.0 mi NE 8.1 mph - N/A   Partly Cloudy
1:15 PM 62.6 °F 44.6 °F 52% 30.03 in 10.0 mi Variable 4.6 mph - N/A   Clear
1:35 PM 62.6 °F 46.4 °F 55% 30.02 in 10.0 mi North 8.1 mph - N/A   Partly Cloudy
1:55 PM 62.6 °F 46.4 °F 55% 30.02 in 10.0 mi NNE 8.1 mph - N/A   Mostly Cloudy
2:15 PM 62.6 °F 46.4 °F 55% 30.03 in 10.0 mi Variable 6.9 mph - N/A   Partly Cloudy
2:35 PM 64.4 °F 46.4 °F 52% 30.02 in 10.0 mi Variable 5.8 mph - N/A   Clear
2:55 PM 64.4 °F 46.4 °F 52% 30.02 in 10.0 mi North 5.8 mph - N/A   Clear
3:15 PM 64.4 °F 46.4 °F 52% 30.02 in 10.0 mi NNE 8.1 mph - N/A   Clear
3:35 PM 64.4 °F 46.4 °F 52% 30.03 in 10.0 mi Variable 6.9 mph - N/A   Clear
3:55 PM 64.4 °F 46.4 °F 52% 30.03 in 10.0 mi NNW 9.2 mph - N/A   Clear
4:15 PM 64.4 °F 46.4 °F 52% 30.03 in 10.0 mi NE 8.1 mph - N/A   Clear
4:35 PM 64.4 °F 46.4 °F 52% 30.03 in 10.0 mi NNW 5.8 mph - N/A   Clear
4:55 PM 62.6 °F 46.4 °F 55% 30.03 in 10.0 mi NNW 8.1 mph - N/A   Clear
5:15 PM 62.6 °F 46.4 °F 55% 30.03 in 10.0 mi Variable 4.6 mph - N/A   Clear
5:35 PM 60.8 °F 46.4 °F 59% 30.04 in 10.0 mi Calm Calm - N/A   Clear
5:55 PM 60.8 °F 46.4 °F 59% 30.05 in 10.0 mi Calm Calm - N/A   Clear
6:15 PM 57.2 °F 46.4 °F 67% 30.05 in 10.0 mi NNW 3.5 mph - N/A   Clear
6:35 PM 53.6 °F 48.2 °F 82% 30.05 in 10.0 mi Calm Calm - N/A   Clear
6:55 PM 51.8 °F 46.4 °F 82% 30.06 in 10.0 mi Calm Calm - N/A   Clear
7:15 PM 48.2 °F 46.4 °F 93% 30.06 in 10.0 mi Calm Calm - N/A   Clear
7:35 PM 48.2 °F 44.6 °F 87% 30.07 in 10.0 mi Calm Calm - N/A   Clear
7:55 PM 46.4 °F 46.4 °F 100% 30.07 in 10.0 mi Calm Calm - N/A   Clear
8:15 PM 46.4 °F 44.6 °F 93% 30.08 in 10.0 mi Calm Calm - N/A   Clear
8:35 PM 46.4 °F 44.6 °F 93% 30.09 in 10.0 mi Calm Calm - N/A   Clear
8:55 PM 46.4 °F 44.6 °F 93% 30.10 in 10.0 mi Calm Calm - N/A   Clear
9:15 PM 44.6 °F 44.6 °F 100% 30.10 in 10.0 mi Calm Calm - N/A   Clear
9:35 PM 44.6 °F 44.6 °F 100% 30.11 in 10.0 mi Calm Calm - N/A   Clear
9:55 PM 44.6 °F 44.6 °F 100% 30.12 in 10.0 mi Calm Calm - N/A   Clear
10:15 PM 44.6 °F 42.8 °F 93% 30.12 in 10.0 mi Calm Calm - N/A   Clear
10:35 PM 44.6 °F 44.6 °F 100% 30.12 in 10.0 mi Calm Calm - N/A   Clear
10:55 PM 42.8 °F 42.8 °F 100% 30.12 in 10.0 mi Calm Calm - N/A   Clear
11:15 PM 42.8 °F 42.8 °F 100% 30.12 in 1.5 mi Calm Calm - N/A   Clear
11:35 PM 42.8 °F 41.0 °F 93% 30.12 in 2.0 mi Calm Calm - N/A   Clear
11:55 PM 41.0 °F 41.0 °F 100% 30.12 in 10.0 mi Calm Calm - N/A   Clear